#timestamp,LO_Frequency,Hit,StdDev 
1663430415.7,286046998.2,N
1663430435.5,286047000.0,N
1663430455.4,286047000.2,N
1663430475.2,286047000.4,N
1663430495.1,286046999.9,N
1663430496.0,286046999.9,N
1663430515.8,286047000.4,N
1663430535.6,286046998.3,N
1663430555.5,286047000.7,N
1663430575.3,286047001.9,N
1663430595.2,286047005.9,Y
1663430615.9,286047013.7,P
1663430635.7,286047014.4,N
1663430655.6,286047014.8,N
1663430675.4,286047013.1,N
1663430695.3,286047012.8,N
1663430715.1,286047013.3,N
1663430716.0,286047013.3,N
1663430735.8,286047013.3,N
1663430755.7,286047013.5,Y
1663430775.5,286046998.1,P
1663430825.4,286046996.6,E
1663430835.3,286046999.3,N
1663430855.1,286046998.4,P
1663430875.9,286046998.4,P
1663430895.7,286047001.2,N
1663430915.6,286047001.0,N
1663430935.4,286046998.6,N
1663430955.2,286046999.4,N
1663430975.1,286046998.7,N
1663430976.0,286046998.7,N
1663430995.8,286046998.7,N
1663431015.6,286046999.5,N
1663431035.5,286046997.0,Y
1663431055.3,286046997.3,P
1663431075.2,286046997.4,N
1663431095.9,286046997.3,P
1663431115.7,286046997.9,N
1663431135.6,286046997.3,Y
1663431155.4,286046998.5,P
1663431175.3,286046997.2,P
1663431195.1,286046995.6,P
1663431196.0,286046995.6,Y
1663431215.8,286046998.6,P
1663431235.7,286046998.3,N
1663431255.5,286047000.0,N
1663431275.3,286047000.7,N
1663431295.2,286046998.5,N
1663431315.0,286046998.1,N
1663431315.9,286046998.1,N
1663431335.8,286046999.9,N
1663431385.6,286046997.1,E
1663431395.6,286046998.1,N
1663431415.4,286047002.6,P
1663431435.2,286047002.3,N
1663431455.1,286047000.3,N
1663431456.0,286047000.3,N
1663431475.8,286047000.2,N
1663431495.6,286047002.6,N
1663431515.5,286046999.7,N
1663431535.3,286046999.9,N
1663431555.2,286047001.3,N
1663431575.9,286047001.3,N
1663431595.7,286047000.3,N
1663431615.6,286047002.3,N
1663431635.4,286047002.4,N
1663431655.2,286047002.1,N
1663431675.1,286047000.1,N
1663431676.0,286047000.1,N
1663431695.8,286047000.3,N
1663431715.7,286047002.1,N
1663431735.5,286047005.3,Y
1663431755.3,286047003.6,P
1663431775.2,286047001.7,N
1663431795.0,286047004.0,P
1663431795.9,286047004.0,Y
1663431815.8,286047000.3,P
1663431835.6,286047002.5,N
1663431855.4,286047001.6,N
1663431875.3,286047002.6,N
1663431925.1,286047002.6,E
1663431935.1,286046998.2,N
1663431936.0,286046998.2,P
1663431955.8,286046998.5,P
1663431975.6,286046998.6,Y
1663431995.5,286046999.6,P
1663432015.3,286046997.4,P
1663432035.1,286046997.2,P
1663432055.9,286046995.2,Y
1663432075.7,286046996.9,P
1663432095.6,286046998.1,P
1663432115.4,286047002.3,P
1663432135.2,286047002.8,N
1663432155.1,286047000.6,N
1663432156.0,286047000.6,N
1663432175.8,286047000.2,N
1663432195.7,286046998.8,N
1663432215.5,286046998.5,N
1663432235.3,286047001.2,N
1663432255.2,286046998.7,N
1663432275.0,286047001.1,N
1663432275.9,286047001.1,N
1663432295.7,286047001.5,N
1663432315.6,286047011.9,Y
1663432335.4,286047004.2,P
1663432355.3,286047001.4,N
1663432375.1,286047003.6,N
1663432376.0,286047003.6,N
1663432395.8,286047004.0,N
1663432415.7,286047001.4,N
1663432435.5,286047005.9,Y
1663432455.4,286047004.0,P
1663432475.2,286047001.4,N
1663432495.0,286047001.0,N
1663432495.9,286047001.0,N
1663432515.8,286047000.5,N
1663432535.6,286047002.8,N
1663432555.4,286047002.2,N
1663432575.3,286047002.5,N
1663432595.1,286047002.7,N
1663432615.9,286047002.1,N
1663432635.7,286047001.4,N
1663432655.5,286047002.8,N
1663432675.4,286047001.2,N
1663432695.2,286046998.8,N
1663432715.0,286046998.9,N
1663432715.9,286046998.9,N
1663432735.8,286046999.0,N
1663432755.6,286047000.4,N
1663432775.5,286046998.1,N
1663432795.3,286046997.1,N
1663432815.1,286046996.8,N
1663432835.9,286046998.5,N
1663432855.7,286046998.4,N
1663432875.5,286046998.5,N
1663432895.4,286046998.3,N
1663432915.2,286047001.1,N
1663432935.1,286047001.1,N
1663432936.0,286047001.1,N
1663432955.8,286046999.4,N
1663432975.6,286046996.5,N
1663432995.5,286047001.2,N
1663433015.3,286046999.8,N
1663433035.2,286047000.7,N
1663433055.9,286047001.1,N
1663433075.7,286046999.2,N
1663433095.6,286046999.2,N
1663433115.4,286046997.2,N
1663433135.3,286046996.6,N
1663433155.1,286046996.8,N
1663433175.8,286046998.8,N
1663433195.7,286046998.3,N
1663433215.5,286047001.2,N
1663433235.4,286046999.8,N
1663433255.2,286047002.0,N
1663433275.0,286047001.5,N
1663433275.9,286047001.5,N
1663433295.8,286047002.2,N
1663433315.6,286047001.6,N
1663433335.5,286047002.3,N
1663433355.3,286047002.8,N
1663433375.1,286047001.8,N
1663433395.9,286047004.0,N
1663433415.7,286047001.6,N
1663433435.6,286047000.0,N
1663433455.4,286047000.6,N
1663433475.2,286047000.4,N
1663433495.1,286046998.7,N
1663433496.0,286046998.7,N
1663433515.8,286046998.8,N
1663433535.7,286046998.4,N
1663433555.5,286047000.5,N
1663433575.3,286047001.6,N
1663433595.2,286047011.9,Y
1663433615.0,286047001.9,P
1663433615.9,286047001.9,N
1663433635.8,286047000.6,N
1663433655.6,286047002.1,N
1663433675.4,286047002.2,N
1663433695.3,286047001.7,N
1663433715.1,286047004.1,Y
1663433735.9,286047001.6,P
1663433755.7,286047000.7,P
1663433775.5,286046998.3,P
1663433795.4,286047000.0,N
1663433815.2,286047000.9,N
1663433835.0,286046999.3,N
1663433835.9,286046999.3,N
1663433855.8,286046998.9,N
1663433875.6,286046999.3,N
1663433895.5,286046996.8,N
1663433945.3,286046998.8,E
1663433955.2,286047000.3,N
1663433975.1,286047001.4,P
1663433976.0,286047001.4,N
1663433995.8,286047001.3,N
